Theta_e
326 319 314 315 317 316 314 309 306 311 322 321 320 322 324 326 327 328 330 331 333 334 339 341 341 342 342 344 344 344 347 351 352 350 349 350 350 353 355 357 360 361 363 363
311 310 316 314 311 309 308 306 307 313 323 321 320 319 324 326 327 327 328 330 332 334 336 338 341 342 341 342 344 345 348 351 352 351 352 354 354 354 356 358 360 361 362 364
310 315 312 312 310 304 306 307 309 310 320 322 320 316 321 325 327 328 328 331 332 333 333 335 337 340 341 340 342 344 347 351 353 354 354 354 354 355 353 354 355 359 362 363
313 317 312 310 305 305 304 307 307 313 315 306 319 303 314 321 322 324 326 327 329 331 334 335 335 337 339 340 342 342 345 349 351 355 354 355 350 348 351 353 355 357 361 361
309 307 306 305 306 306 305 310 314 317 312 312 313 309 313 318 320 323 327 328 329 331 332 332 334 336 338 340 341 341 345 350 353 355 356 352 352 351 353 354 355 358 359 361
310 309 308 307 307 307 308 307 307 308 308 302 301 311 309 313 314 321 328 330 331 331 332 333 335 336 336 338 339 339 342 346 352 353 353 355 355 353 351 351 350 351 355 353
305 307 308 307 306 308 307 305 302 300 301 299 306 310 312 315 318 321 326 329 332 333 333 334 334 334 335 336 335 337 340 343 349 352 353 355 356 356 354 353 350 352 351 350
301 303 309 311 307 306 305 306 302 295 298 302 306 304 310 323 327 323 325 329 330 333 335 334 336 336 336 336 337 339 341 343 345 351 353 356 358 351 352 352 351 351 348 351
303 305 310 310 310 309 306 307 305 300 300 303 305 309 316 326 324 331 331 332 334 335 335 337 336 337 338 338 339 341 345 347 348 348 352 353 354 354 353 357 355 353 354 353
307 305 308 310 310 309 308 306 303 304 298 298 304 306 310 321 324 327 328 330 333 336 337 337 334 336 339 339 342 342 344 346 347 346 349 350 352 353 354 355 354 356 355 356
308 307 308 309 307 305 308 306 302 303 302 302 301 306 316 324 325 326 329 331 334 335 337 338 340 340 341 341 342 341 343 345 346 348 349 351 351 352 353 352 354 356 357 357
308 308 305 305 307 306 306 305 305 304 301 302 304 307 315 318 322 328 331 333 334 335 338 339 341 342 341 343 343 344 345 346 346 348 350 349 351 352 351 352 353 356 356 358
309 305 302 303 306 309 307 306 303 302 304 302 302 307 316 321 324 325 331 333 334 335 338 338 339 339 340 341 342 344 347 348 348 349 348 349 349 351 351 352 354 355 356 357
313 304 304 302 304 307 305 306 305 306 305 303 304 306 313 312 320 324 325 333 334 334 336 337 337 338 339 341 342 345 346 348 349 349 349 349 350 352 352 354 356 356 359 359
311 305 304 305 304 304 306 306 306 306 307 304 307 305 311 317 324 326 326 327 333 334 335 335 336 337 340 341 342 343 342 347 351 351 351 352 354 356 355 356 357 357 359 359
307 307 305 305 305 305 304 307 307 307 306 305 306 306 318 327 330 329 327 331 333 333 335 336 338 338 339 339 340 341 343 343 344 345 348 353 353 354 354 354 351 351 353 353
309 306 305 303 303 304 301 306 307 308 308 309 307 313 325 326 327 329 329 332 334 334 335 335 338 341 342 343 342 343 345 347 348 348 350 349 350 354 353 351 348 346 345 344
308 307 306 303 303 296 307 310 310 308 312 313 316 322 327 327 327 330 334 335 332 333 334 337 339 341 342 344 345 343 342 346 346 347 348 350 351 350 352 349 345 345 344 344
308 307 303 301 300 304 306 312 313 313 313 318 319 324 324 324 324 325 329 332 333 333 335 337 341 341 341 339 341 340 340 341 342 340 341 345 347 348 350 348 348 347 344 343
305 308 306 301 298 296 308 314 320 320 308 320 322 322 322 319 315 319 327 329 331 332 332 333 338 338 338 339 339 335 332 332 332 336 338 341 345 345 346 347 346 347 345 341
305 303 303 302 301 304 312 313 320 307 308 322 322 323 321 316 320 324 327 328 329 327 327 336 335 331 333 334 332 328 329 327 330 333 335 337 341 343 345 346 347 346 343 341
307 305 302 301 301 300 313 314 312 318 316 324 323 323 321 321 321 324 324 324 324 326 329 329 327 324 326 329 329 328 326 327 329 331 331 333 335 336 339 343 344 342 341 340
306 310 308 308 308 314 316 317 319 317 319 324 324 323 323 321 322 323 322 324 324 325 327 326 324 324 325 327 326 324 324 325 325 325 324 325 328 330 333 335 336 336 339 338
311 311 312 310 315 313 316 319 319 319 320 323 325 322 322 322 322 321 322 324 324 325 324 323 323 324 325 325 324 322 323 324 324 322 322 323 323 322 325 327 329 329 330 334
312 312 313 313 315 316 318 319 320 319 320 320 321 321 322 322 321 322 322 324 325 324 322 324 324 324 323 322 322 323 323 323 321 321 321 321 321 322 323 322 322 324 329 328
312 312 310 310 320 320 319 320 320 319 320 321 320 320 322 323 322 322 322 325 324 322 324 324 324 321 320 321 321 322 323 323 322 320 320 319 317 318 320 321 321 315 312 310
Wind_Speed
2 4 9 13 9 12 10 11 14 12 1 2 3 7 14 14 12 13 14 16 18 20 19 17 18 18 17 15 15 16 13 12 9 7 6 7 8 7 6 5 6 7 7 8
1 10 14 7 7 9 9 10 7 6 2 1 2 3 13 17 15 16 17 17 19 18 18 19 20 20 19 17 16 16 14 13 12 9 7 5 6 5 5 5 6 6 7 8
7 10 2 8 11 4 6 7 3 4 2 2 6 3 4 9 7 13 15 16 18 20 21 21 22 22 20 19 18 17 15 15 13 12 8 5 3 2 3 5 5 6 8 9
9 9 10 9 10 7 7 4 3 3 3 4 6 4 1 4 13 13 15 16 17 19 18 19 20 22 23 22 17 17 16 15 13 13 10 12 9 9 8 7 6 6 9 10
4 4 5 7 8 5 3 5 4 4 2 2 3 4 4 3 7 15 16 17 18 20 22 23 24 24 23 20 20 18 16 15 14 14 13 11 12 9 7 6 7 8 7 9
13 1 5 5 2 3 9 5 5 4 1 4 4 4 1 3 5 3 15 18 20 21 21 22 21 21 20 20 20 19 16 17 16 15 16 15 14 12 9 9 7 6 6 5
5 2 2 4 3 4 4 3 2 1 2 3 3 4 4 10 5 4 6 14 18 18 18 19 21 21 20 20 20 17 15 16 16 17 16 17 16 14 14 12 9 8 7 8
4 2 3 2 2 2 2 2 2 3 3 3 3 2 4 7 6 2 2 1 3 8 12 16 19 19 19 18 19 18 14 13 16 16 17 15 15 12 10 12 10 8 8 9
3 1 1 3 2 3 4 1 3 6 0 3 3 2 2 3 5 4 5 6 6 3 4 9 14 18 18 17 17 15 13 12 14 17 13 14 14 15 13 13 11 9 9 7
2 3 1 2 2 9 2 6 2 1 0 1 0 3 3 3 5 4 8 9 8 8 6 7 1 9 12 12 12 13 14 14 13 14 13 12 14 15 14 12 13 12 11 10
3 2 1 2 6 5 1 3 6 4 3 1 4 3 3 7 3 2 3 4 6 6 7 8 7 6 4 6 8 11 11 12 12 12 12 14 14 15 14 14 14 14 12 11
2 1 3 2 1 3 2 3 1 3 5 2 2 2 2 2 2 1 1 1 2 2 8 8 10 10 9 8 7 8 10 12 13 13 13 14 13 13 14 15 15 12 13 11
6 1 2 4 4 4 3 3 4 4 1 3 3 2 3 3 2 1 1 4 3 3 8 8 11 10 8 7 6 6 8 9 11 12 13 13 13 14 15 13 12 12 11 11
4 3 3 2 1 1 1 1 2 3 2 4 4 3 4 3 4 5 3 2 4 4 7 8 9 8 6 4 3 3 4 7 9 9 10 9 11 11 11 12 13 13 12 12
1 4 3 2 2 2 2 4 5 6 5 7 4 7 2 2 7 7 6 2 4 4 6 7 7 5 2 1 1 3 4 2 3 6 7 8 7 8 9 10 11 12 13 14
1 4 3 2 3 5 6 9 9 10 6 10 8 11 2 3 2 2 2 7 7 6 7 7 6 6 6 5 3 4 5 5 3 2 5 7 7 8 11 12 13 12 12 13
3 6 4 9 2 4 8 13 12 6 7 7 8 3 4 3 3 4 5 8 10 9 8 8 9 7 8 8 5 5 6 6 6 5 5 4 7 9 10 10 10 12 10 6
5 4 2 7 2 11 5 4 6 6 6 9 4 6 5 5 4 5 4 9 10 8 7 6 6 7 8 9 7 5 6 6 6 7 8 8 5 6 8 10 12 12 10 11
6 5 4 5 7 7 7 5 8 8 3 7 10 10 9 7 6 5 3 4 7 7 6 6 6 7 7 8 6 6 6 6 7 9 11 12 12 11 9 9 10 9 8 10
6 3 5 4 5 6 5 10 6 6 5 13 12 14 14 9 5 4 6 4 5 4 5 4 6 7 7 6 5 8 8 7 6 7 8 10 11 11 11 11 12 10 9 10
6 4 8 7 7 6 9 4 10 9 1 19 18 16 15 7 3 6 9 6 4 5 6 7 9 9 8 7 7 8 6 7 4 5 6 7 8 11 13 13 11 11 11 10
11 8 5 4 7 9 9 9 10 6 1 18 18 17 14 5 5 9 8 5 4 4 6 7 8 8 7 8 8 8 9 10 8 5 4 7 8 7 7 9 9 9 9 9
8 8 5 9 5 0 10 5 2 4 3 10 18 18 14 9 9 9 7 6 4 3 5 6 5 5 6 7 8 8 9 10 10 10 10 9 8 8 8 8 9 8 9 9
5 3 5 5 7 8 10 10 9 6 9 10 14 14 14 14 12 11 8 6 5 4 4 4 3 6 7 8 7 5 6 8 9 10 11 10 10 9 8 7 7 7 7 7
1 9 8 4 4 5 8 11 8 7 7 12 12 11 14 13 12 10 8 6 5 5 4 5 6 6 8 9 9 8 7 6 6 7 8 10 9 9 9 8 8 8 9 8
5 5 7 6 5 3 2 6 8 10 13 13 13 12 10 12 12 9 6 5 6 4 4 4 6 7 9 8 9 9 8 7 7 7 6 6 8 8 9 8 9 8 12 12
Wind_Direction
67 285 277 296 274 276 292 294 290 285 28 223 258 152 174 175 178 174 181 185 192 193 190 192 203 209 214 219 220 218 216 208 197 199 212 226 230 226 227 228 236 236 222 214
254 275 291 273 279 270 262 272 269 278 32 244 11 294 167 180 193 188 187 189 197 198 197 202 206 210 216 221 222 217 218 213 206 205 209 212 197 220 224 219 237 232 220 210
248 268 274 290 300 255 240 235 218 289 19 79 307 136 148 195 214 203 206 204 200 204 203 205 208 213 214 218 217 218 215 212 211 209 205 189 169 187 206 219 227 231 229 217
253 277 259 267 272 224 309 235 273 212 251 346 348 353 99 173 206 215 213 210 209 208 214 214 214 217 216 217 212 214 214 215 212 203 211 215 221 234 231 229 220 222 231 233
223 237 222 265 268 197 328 34 64 104 113 296 41 289 57 137 186 219 219 218 214 209 213 213 211 215 217 216 217 213 206 205 208 203 212 215 230 235 236 217 226 224 223 242
264 285 247 243 263 201 147 84 76 87 290 251 11 273 113 19 331 234 210 216 216 215 216 224 219 218 216 212 214 213 206 204 198 200 207 216 225 222 225 225 226 225 213 225
308 200 228 235 221 127 186 180 279 199 177 5 351 210 8 333 348 252 185 210 216 221 221 222 222 218 216 214 211 210 205 206 199 200 202 210 220 219 224 227 226 213 218 214
306 120 18 18 316 3 59 320 315 21 341 42 147 22 33 333 319 256 182 256 215 228 231 236 232 226 222 216 210 206 200 210 202 201 210 209 211 219 223 223 226 217 227 227
203 276 350 42 15 316 135 117 48 111 114 239 352 192 251 28 122 124 90 93 61 29 299 269 235 224 224 211 208 200 201 201 208 213 210 214 215 216 218 220 216 215 222 222
149 287 50 347 201 69 323 123 183 60 267 88 12 273 97 146 142 49 38 20 8 7 17 24 351 226 218 208 200 192 202 205 207 215 212 219 222 220 223 217 219 216 218 209
157 286 30 253 28 354 175 171 70 105 334 245 176 170 180 188 180 68 16 348 349 354 33 41 46 63 116 159 179 195 201 205 206 211 216 216 215 217 214 220 219 215 213 213
55 112 304 43 3 297 324 46 357 241 165 44 331 145 63 238 188 152 326 360 4 348 59 63 66 72 87 115 146 176 195 202 207 212 209 215 216 219 217 224 218 218 216 204
169 63 304 171 182 175 44 52 81 87 147 178 260 100 100 108 168 59 129 135 87 61 79 75 72 65 65 84 109 145 189 207 215 209 217 225 220 213 218 220 219 211 214 213
133 128 256 284 219 68 179 118 93 356 274 145 249 319 168 183 305 316 310 136 92 50 66 70 79 76 70 72 92 139 198 214 218 228 229 232 231 227 225 218 207 211 206 202
264 195 205 236 240 229 261 253 211 254 271 245 281 239 260 304 306 312 294 186 124 79 57 55 61 76 107 123 306 320 344 360 289 241 238 233 243 230 222 208 205 200 204 209
38 163 186 249 210 226 263 261 253 257 250 250 262 270 251 329 306 343 279 152 129 82 72 71 52 41 45 49 16 359 332 325 302 292 263 238 235 219 211 204 199 195 192 192
180 153 184 259 206 266 250 246 246 196 202 216 221 273 163 118 88 72 116 111 106 99 95 81 61 45 38 37 37 32 2 355 2 344 321 286 262 241 232 219 206 209 210 229
167 182 204 274 212 257 279 293 245 251 239 229 252 164 155 131 109 83 97 123 118 115 100 84 78 67 51 50 55 17 14 22 10 354 343 342 327 282 256 225 225 231 237 250
212 153 181 242 231 293 268 200 168 198 223 209 188 157 153 147 144 110 112 127 121 105 98 82 70 71 61 64 67 69 47 16 9 350 334 325 322 318 310 286 269 258 252 259
131 176 210 164 223 243 260 206 177 163 248 178 178 171 166 170 180 140 159 156 153 117 94 96 79 67 63 63 73 83 78 60 27 349 323 314 303 298 297 292 292 294 287 287
160 154 201 195 234 255 258 199 161 196 273 174 185 180 172 189 34 123 147 144 127 99 83 86 80 73 61 55 61 58 66 58 21 333 324 317 304 294 289 289 285 286 288 290
191 179 186 167 214 243 156 144 198 198 137 179 180 183 179 166 139 148 148 145 121 105 98 97 98 85 62 44 40 33 18 354 351 352 338 331 327 312 301 289 287 281 279 270
209 212 192 209 211 72 200 267 242 298 202 187 184 183 185 177 172 168 164 159 155 120 85 73 72 80 76 48 33 22 3 348 345 342 344 341 329 320 320 308 300 288 271 267
217 163 202 168 192 222 239 258 255 240 228 192 184 172 175 176 171 171 172 174 162 124 104 68 45 31 31 29 30 27 6 350 343 340 341 341 335 334 316 303 294 291 285 265
278 160 172 230 260 272 236 234 235 202 178 159 154 165 170 165 172 177 186 180 163 141 107 58 32 14 9 4 1 3 358 347 341 332 336 340 335 322 313 306 303 295 284 283
195 178 198 221 194 207 179 176 182 177 174 170 157 154 167 171 172 179 185 165 155 139 97 50 23 7 0 358 350 351 349 341 328 319 323 334 333 330 322 312 307 278 267 279